User: anonymous   Login
Location: Unspecified
(0.0000°N, 0.0000°E)
Time: 05:29:11
(UTC+02:00)
Language:

deb Ariane - Orbit

View from above orbital plane
View from above orbital plane
View from above satellite
View from above satellite

Ground track
Ground track

The orbit data is extracted from the following two-line orbital elements,

1 25668U 92060E   14297.63489257  .00882073 -36736-7  11162-2 0  7083
2 25668 007.4665 070.8637 5142290 186.7587 301.8382 05.58455249253375
Epoch (UTC): 24 October 2014 15:14:14
Eccentricity: 0.5142290
inclination: 7.4665°
perigee height: 141 km
apogee height: 13942 km
right ascension of ascending node: 70.8637°
argument of perigee: 186.7587°
revolutions per day: 5.58455249
mean anomaly at epoch: 301.8382°
orbit number at epoch: 25337

The dashed part of the orbit path shows where the satellite is in the earth's shadow,  

DLR